{"data":{"norad_id":63745,"epoch":"2026-09-20T23:39:07.943040Z","epoch_age_seconds":162740,"freshness":"FRESH","line1":"1 63745U 25088X   26263.98550860  .00010844  00000+0  25408-3 0  9996","line2":"2 63745  51.8657 155.8439 0005265  96.5611 263.5977 15.42625309 79642","mean_motion":15.42625309,"eccentricity":0.0005265,"inclination_deg":51.8657,"raan_deg":155.8439,"arg_perigee_deg":96.5611,"mean_anomaly_deg":263.5977,"bstar":0.00025408,"rev_number":7964,"period_min":93.347359958296,"perigee_km":434.77569298286,"apogee_km":441.95346914772,"semimajor_km":6816.5015810653,"source":"CELESTRAK","updated_at":"2026-09-22T09:00:29.321641Z"}}